Lone Rock, WI

10:41 AM CST on January 21, 2017 (GMT -0600)
Lone Rock

Weather History for KLNR - October, 2011

Change the Weather History Date:

Friday, October 28, 2011

  Actual Average Record
Temperature  
Mean Temperature 40 °F -  
Max Temperature 55 °F 52 °F 68 °F (1998)
Min Temperature 26 °F 35 °F 21 °F (2005)
Degree Days  
Heating Degree Days 24    
Moisture  
Dew Point 29 °F    
Average Humidity 85    
Maximum Humidity 100    
Minimum Humidity 34    
Precipitation  
Precipitation 0.00 in - - ()
Sea Level Pressure  
Sea Level Pressure 30.11 in    
Wind  
Wind Speed 1 mph (SE)    
Max Wind Speed 14 mph    
Max Gust Speed 20 mph    
Visibility 5 miles    
Events Fog    
Averages and records for this station are not official NWS values.
T = Trace of Precipitation, MM = Missing Value Source: NWS Daily Summary

Daily Weather History Graph

Daily Weather History Graph

Search for Another Location

Airport or City:

Trip Planner

Search our weather history database for the weather conditions in past years. The results will help you decide how hot, cold, wet, or windy it might be!

Date:

Astronomy

Oct. 28, 2011 Rise Set
Actual Time 7:30 AM CDT 5:58 PM CDT
Civil Twilight 7:00 AM CDT 6:27 PM CDT
Nautical Twilight 6:27 AM CDT 7:00 PM CDT
Astronomical Twilight 5:54 AM CDT 7:33 PM CDT
Moon 9:50 AM CDT (10/28) 7:16 PM CDT (10/28)
Length of Visible Light 11h 26m
Length of Day
10h 27m
Waxing Crescent, 5% of the Moon is Illuminated
Oct 28
Waxing Crescent
Nov 2
First Quarter
Nov 10
Full
Nov 18
Last Quarter
Nov 25
New

Hourly Weather History & Observations

Time (CDT) Temp. Windchill Dew Point Humidity Pressure Visibility Wind Dir Wind Speed Gust Speed Precip Events Conditions
12:56 AM 32.0 °F - 28.9 °F 88% 30.14 in 8.0 mi Calm Calm - N/A   Clear
1:56 AM 30.0 °F 26.5 °F 28.0 °F 92% 30.14 in 6.0 mi East 3.5 mph - N/A   Clear
2:56 AM 30.0 °F - 28.0 °F 92% 30.15 in 6.0 mi Calm Calm - N/A   Clear
3:18 AM 28.4 °F - 26.6 °F 93% 30.14 in 5.0 mi Calm Calm - N/A   Clear
3:56 AM 27.0 °F - 25.0 °F 92% 30.14 in 7.0 mi Calm Calm - N/A   Partly Cloudy
4:09 AM 26.6 °F - 24.8 °F 93% 30.14 in 6.0 mi Calm Calm - N/A   Mostly Cloudy
4:13 AM 26.6 °F - 24.8 °F 93% 30.13 in 1.8 mi Calm Calm - N/A   Mostly Cloudy
4:16 AM 26.6 °F - 24.8 °F 93% 30.14 in 0.8 mi Calm Calm - N/A   Mist
4:26 AM 28.4 °F - 26.6 °F 93% 30.14 in 0.2 mi Calm Calm - N/A Fog Light Freezing Fog
4:56 AM 27.0 °F - 26.1 °F 96% 30.14 in 0.2 mi Calm Calm - N/A Fog Light Freezing Fog
5:10 AM 26.6 °F - 24.8 °F 93% 30.14 in 0.5 mi Calm Calm - N/A Fog Light Freezing Fog
5:18 AM 26.6 °F - 24.8 °F 93% 30.14 in 0.5 mi Calm Calm - N/A Fog Light Freezing Fog
5:28 AM 26.6 °F - 26.6 °F 100% 30.14 in 0.2 mi Calm Calm - N/A Fog Light Freezing Fog
5:56 AM 27.0 °F - 26.1 °F 96% 30.15 in 0.2 mi Calm Calm - N/A Fog Light Freezing Fog
6:56 AM 27.0 °F - 25.0 °F 92% 30.16 in 0.2 mi Calm Calm - N/A Fog Light Freezing Fog
7:33 AM 26.6 °F - 24.8 °F 93% 30.15 in 0.5 mi Calm Calm - N/A Fog Light Freezing Fog
7:45 AM 26.6 °F - 24.8 °F 93% 30.14 in 0.2 mi Calm Calm - N/A Fog Light Freezing Fog
7:56 AM 26.1 °F - 24.1 °F 92% 30.16 in 0.2 mi Calm Calm - N/A Fog Light Freezing Fog
8:53 AM 28.4 °F - 24.8 °F 86% 30.15 in 1.0 mi Calm Calm - N/A   Mist
9:26 AM 30.2 °F - 28.4 °F 93% 30.14 in 3.0 mi Calm Calm - N/A   Mostly Cloudy
9:38 AM 30.2 °F - 28.4 °F 93% 30.14 in 2.5 mi Calm Calm - N/A   Scattered Clouds
9:44 AM 30.2 °F - 28.4 °F 93% 30.14 in 1.5 mi Calm Calm - N/A   Mostly Cloudy
9:56 AM 30.9 °F 27.5 °F 30.0 °F 96% 30.15 in 1.0 mi East 3.5 mph - N/A   Mostly Cloudy
10:11 AM 32.0 °F - 30.2 °F 93% 30.13 in 3.0 mi Calm Calm - N/A   Mostly Cloudy
10:20 AM 33.8 °F - 33.8 °F 100% 30.13 in 5.0 mi Calm Calm - N/A   Scattered Clouds
10:56 AM 39.0 °F 36.8 °F 35.1 °F 86% 30.13 in 9.0 mi East 3.5 mph - N/A   Clear
11:56 AM 50.0 °F - 34.0 °F 54% 30.09 in 10.0 mi Calm Calm - N/A   Scattered Clouds
12:56 PM 53.1 °F - 26.1 °F 35% 30.06 in 10.0 mi SSW 8.1 mph 18.4 mph N/A   Overcast
2:56 PM 55.9 °F - 28.0 °F 34% 30.00 in 10.0 mi South 13.8 mph 19.6 mph N/A   Mostly Cloudy
3:56 PM 48.9 °F - 35.1 °F 59% 30.01 in 10.0 mi South 8.1 mph - 0.00 in   Overcast
4:56 PM 50.0 °F - 35.1 °F 57% 30.00 in 10.0 mi SSE 3.5 mph - 0.00 in   Overcast
5:56 PM 46.9 °F - 39.0 °F 74% 30.01 in 10.0 mi East 3.5 mph - N/A   Mostly Cloudy
6:56 PM 42.1 °F - 34.0 °F 73% 30.02 in 10.0 mi Calm Calm - N/A   Scattered Clouds
7:56 PM 39.9 °F - 34.0 °F 79% 30.03 in 10.0 mi Calm Calm - N/A   Scattered Clouds
8:56 PM 36.0 °F - 30.9 °F 82% 30.04 in 10.0 mi Calm Calm - N/A   Clear
9:56 PM 32.0 °F - 28.9 °F 88% 30.04 in 8.0 mi Calm Calm - N/A   Clear
10:56 PM 30.9 °F - 28.0 °F 89% 30.04 in 9.0 mi Calm Calm - N/A   Partly Cloudy
11:56 PM 30.0 °F - 28.0 °F 92% 30.03 in 7.0 mi Calm Calm - N/A   Clear